Temp
12 12 12 12 12 12 12 12 12 12 12 12 12 12 13 13 13 13 12 12 12 12 12 12 11 11 11 11 11 11 12 12 12 12 12 11 11 11 11 10 10 10 10 10 10 10 10 10 10 9 9 9 9 9 9 9 8 8 8 8 8 8 8 8 8 8 7 7 7
12 12 12 12 12 12 12 12 12 12 12 12 12 12 13 13 13 12 12 12 12 12 12 11 11 11 11 11 11 11 11 12 12 12 12 11 11 11 11 10 10 10 10 10 10 10 10 10 10 9 9 9 9 9 9 8 8 8 8 8 8 8 8 8 8 7 7 7 7
11 12 12 12 12 12 12 12 12 12 12 12 12 12 12 12 12 12 12 12 12 12 11 11 11 11 11 11 11 11 11 11 11 11 11 11 11 11 11 10 10 10 10 10 10 10 10 10 9 9 9 9 9 9 8 8 8 8 8 8 8 8 8 7 7 7 7 7 7
11 11 11 12 12 12 12 12 12 12 12 12 12 12 12 12 12 12 12 12 12 11 11 11 11 11 11 11 11 11 11 11 11 11 11 11 11 11 10 10 10 10 10 10 10 10 10 10 9 9 9 9 9 9 8 8 8 8 8 8 8 8 7 7 7 7 7 7 7
11 11 11 12 12 12 12 12 12 12 12 12 12 12 12 12 12 12 12 11 11 11 11 11 11 11 11 11 11 11 11 11 11 11 11 11 11 11 10 10 10 10 10 10 10 10 10 9 9 9 9 9 9 8 8 8 8 8 8 8 7 7 7 7 7 7 7 7 6
11 11 11 11 12 12 12 12 12 12 12 12 12 12 12 12 12 12 11 11 11 11 11 11 11 11 11 11 11 11 11 11 11 11 11 11 11 10 10 10 10 10 10 10 10 10 10 9 9 9 9 9 8 8 8 8 8 8 8 7 7 7 7 7 7 7 7 6 6
11 11 11 11 11 11 12 12 12 12 12 12 12 12 12 12 12 12 12 11 11 11 11 11 11 11 11 11 10 10 10 11 11 11 11 11 10 10 10 10 10 10 10 10 10 10 9 9 9 9 9 9 8 8 8 8 8 8 7 7 7 7 7 7 7 6 6 6 6
11 11 11 11 11 11 11 12 12 12 12 12 12 12 12 12 12 12 12 11 11 11 11 11 11 11 11 11 10 10 10 11 11 11 11 10 10 10 10 10 10 10 10 10 10 10 9 9 9 9 9 8 8 8 8 8 8 7 7 7 7 7 7 7 6 6 6 6 6
11 11 11 11 11 11 11 12 12 12 12 12 12 12 12 12 12 12 12 11 11 11 11 11 11 10 10 10 10 10 10 11 11 11 11 10 10 10 10 10 10 10 10 10 10 9 9 9 9 9 9 8 8 8 8 7 7 7 7 7 7 7 6 6 6 6 6 6 6
11 11 11 11 11 11 12 12 12 12 12 12 12 12 12 12 12 12 12 11 11 11 11 11 10 10 10 10 10 10 10 11 11 11 11 10 10 10 10 10 10 10 10 9 9 9 9 9 9 9 8 8 8 8 8 7 7 7 7 7 6 6 6 6 6 6 6 6 6
11 11 11 11 12 12 12 12 12 12 12 12 12 12 12 12 12 12 12 11 11 11 11 11 10 10 10 10 10 10 10 11 11 11 11 11 10 10 10 10 10 10 9 9 9 9 9 9 9 8 8 8 8 8 7 7 7 7 7 6 6 6 6 6 6 6 5 5 5
11 11 12 12 12 12 12 12 12 12 12 12 12 12 12 12 12 12 11 11 11 11 11 11 10 10 10 10 10 10 10 11 11 11 11 11 10 10 10 10 9 9 9 9 9 9 9 9 8 8 8 8 8 7 7 7 7 7 6 6 6 6 6 6 5 5 5 5 5
12 12 12 12 12 12 12 12 12 12 12 12 12 12 12 12 12 11 11 11 11 11 11 10 10 10 10 10 10 10 10 10 10 10 10 10 10 10 9 9 9 9 9 9 9 9 9 9 8 8 8 8 7 7 7 7 7 6 6 6 6 6 6 5 5 5 5 5 5
12 12 12 12 12 12 12 12 12 12 12 12 12 12 12 11 11 11 11 11 11 11 10 10 10 10 10 10 10 10 10 10 10 10 10 10 9 9 9 9 9 9 9 9 9 9 9 8 8 8 8 7 7 7 7 7 6 6 6 6 6 6 5 5 5 5 5 4 4
12 12 12 12 12 12 12 12 12 12 12 12 12 12 11 11 11 11 11 11 11 10 10 10 10 10 10 10 10 10 10 10 9 9 9 9 9 9 9 9 9 9 9 9 9 9 8 8 8 8 7 7 7 7 7 6 6 6 6 6 5 5 5 5 5 4 4 4 4
12 12 12 12 12 12 12 12 12 12 12 12 11 11 11 11 11 11 11 10 10 10 10 10 10 9 9 9 9 9 9 9 9 9 9 9 9 9 9 9 9 9 9 9 9 8 8 8 8 7 7 7 7 7 6 6 6 6 6 5 5 5 5 5 4 4 4 4 4
12 12 12 12 12 12 12 12 12 11 11 11 11 11 11 11 11 10 10 10 10 10 10 9 9 9 9 9 9 9 9 9 9 9 9 9 9 9 8 8 9 9 9 9 8 8 8 8 7 7 7 7 7 6 6 6 6 6 5 5 5 5 5 4 4 4 4 4 4
12 12 12 12 12 12 12 12 11 11 11 11 11 11 11 10 10 10 10 10 10 10 9 9 9 9 9 9 9 9 9 9 9 9 9 9 8 8 8 8 8 8 8 8 8 8 8 7 7 7 7 6 6 6 6 6 6 5 5 5 5 4 4 4 4 3 3 3 3
12 12 12 12 12 12 12 11 11 11 11 11 11 11 10 10 10 10 10 10 10 10 9 9 9 9 9 9 9 9 9 9 9 9 9 8 8 8 8 8 8 8 8 8 8 8 7 7 7 7 6 6 6 6 6 5 5 5 5 5 4 4 4 3 3 3 3 3 3
12 12 12 12 12 12 12 11 11 11 11 11 11 11 11 10 10 10 10 10 10 9 9 9 9 9 9 9 9 9 9 9 9 9 8 8 8 8 8 8 8 8 8 8 7 7 7 7 7 6 6 6 6 6 5 5 5 5 5 4 4 4 3 3 3 3 3 3 3
12 12 12 12 12 12 12 12 11 11 11 11 11 11 10 10 10 10 10 10 9 9 9 9 9 9 9 9 9 9 9 9 8 8 8 8 8 8 8 8 8 8 8 7 7 7 7 7 6 6 6 6 6 5 5 5 5 5 4 4 4 3 3 3 3 3 3 3 3
12 12 12 12 12 12 11 11 11 11 11 11 10 10 10 10 10 10 10 9 9 9 9 9 9 8 8 8 8 8 8 8 8 8 8 8 8 8 8 8 8 7 7 7 7 7 6 6 6 6 6 6 5 5 5 5 5 4 4 3 3 3 3 3 3 2 2 2 3
12 12 12 11 11 11 11 11 11 11 11 11 10 10 10 10 10 9 9 9 9 9 8 8 8 8 8 8 8 8 8 8 8 8 8 8 8 8 8 8 7 7 7 7 7 6 6 6 6 6 6 5 5 5 5 4 4 4 3 3 3 3 3 2 2 2 2 2 3
12 12 12 11 11 11 11 11 11 11 11 10 10 10 10 9 9 9 9 9 8 8 8 8 8 8 8 8 8 8 8 8 8 7 7 8 8 8 8 7 7 7 7 6 6 6 6 6 6 6 5 5 5 5 4 4 4 3 3 3 3 2 2 2 2 2 2 2 3
12 12 12 11 11 11 11 11 11 10 10 10 10 10 9 9 9 9 8 8 8 8 8 8 8 8 8 8 7 7 7 7 7 7 7 7 7 7 7 7 7 7 6 6 6 6 6 6 5 5 5 5 4 4 4 4 3 3 3 3 2 2 2 2 2 2 2 3 3
11 11 11 11 11 11 11 10 10 10 10 10 9 9 9 9 8 8 8 8 8 8 8 8 8 8 7 7 7 7 7 7 7 7 7 7 7 7 7 7 7 6 6 6 6 6 6 5 5 5 5 4 4 4 4 3 3 3 2 2 2 2 2 2 2 2 3 3 3
11 11 11 11 11 11 10 10 10 9 9 9 9 9 8 8 8 8 8 8 7 7 7 7 7 7 7 7 7 7 7 7 7 7 7 7 7 7 7 7 6 6 6 6 6 6 5 5 5 5 4 4 4 4 3 3 3 2 2 2 2 2 2 2 2 2 3 3 3
11 11 11 11 10 10 10 10 9 9 9 9 9 8 8 8 8 7 7 7 7 7 7 7 7 7 7 7 7 7 7 7 7 7 7 7 7 7 6 6 6 6 6 6 6 5 5 5 5 4 4 4 4 3 3 3 2 2 2 2 2 2 2 2 2 3 3 3 3
11 11 11 10 10 10 10 9 9 9 9 8 8 8 8 7 7 7 7 7 7 7 7 7 7 7 7 7 7 7 7 7 7 7 7 7 7 6 6 6 6 6 6 5 5 5 5 5 5 4 4 4 3 3 3 2 2 2 2 2 2 2 2 2 2 3 3 3 2
11 11 11 10 10 10 9 9 9 9 8 8 8 7 7 7 7 6 6 6 6 6 6 6 7 7 7 7 7 7 7 7 7 7 6 6 6 6 6 6 6 6 5 5 5 5 5 5 4 4 4 3 3 3 2 2 2 2 2 2 2 2 2 2 2 2 2 2 2
11 11 11 10 10 10 9 9 9 8 8 8 7 7 7 6 6 6 6 6 6 6 6 6 6 6 7 7 7 7 7 7 6 6 6 6 6 6 6 6 6 5 5 5 5 5 5 5 4 4 4 3 3 3 2 2 2 2 2 2 2 2 2 2 2 2 2 1 1
11 11 10 10 10 9 9 9 8 8 8 7 7 7 6 6 6 6 5 5 5 5 5 6 6 6 6 6 6 6 6 6 6 6 6 6 6 6 6 5 5 5 5 5 5 5 5 4 4 4 4 3 3 3 2 2 2 2 2 2 2 2 2 2 2 1 1 1 1
11 11 10 10 9 9 9 8 8 7 7 7 7 6 6 6 5 5 5 5 5 5 5 5 5 6 6 6 6 6 6 6 6 6 6 6 6 5 5 5 5 5 5 5 5 5 4 4 4 4 3 3 3 3 3 2 2 2 2 2 2 2 2 1 1 1 1 1 0
10 10 10 9 9 9 8 8 7 7 7 6 6 6 6 5 5 5 4 4 4 4 4 5 5 5 5 5 6 6 6 6 6 6 6 6 5 5 5 5 5 5 5 5 4 4 4 4 4 4 4 3 3 3 2 2 2 2 2 2 2 1 1 1 1 1 1 0 -0
10 10 9 9 9 8 8 7 7 6 6 6 6 5 5 5 5 4 4 4 4 4 4 4 4 4 4 5 5 5 5 5 6 6 5 5 5 5 5 5 5 5 4 4 4 4 4 4 4 4 4 3 3 3 2 2 2 2 2 2 1 1 1 1 1 1 0 -0 -1
10 9 9 8 8 8 7 7 6 6 6 5 5 5 5 4 4 4 3 3 3 3 3 3 3 4 4 4 5 5 5 5 5 5 5 5 5 5 5 5 5 4 4 4 4 4 4 4 4 3 3 3 3 2 2 2 2 2 2 1 1 1 1 1 1 0 -0 -0 -1
9 9 9 8 8 7 7 6 6 6 5 5 5 4 4 4 3 3 3 3 2 2 2 3 3 3 4 4 4 5 5 5 5 5 5 4 4 4 4 4 4 4 4 4 4 4 4 4 3 3 3 3 2 2 2 2 2 1 1 1 1 1 1 1 0 0 -0 -1 -1
9 9 8 8 7 7 7 6 6 5 5 4 4 4 3 3 3 3 2 2 2 2 2 2 3 3 3 4 4 4 4 4 4 4 4 4 4 4 4 4 4 4 4 4 4 3 3 3 3 3 3 2 2 2 2 2 1 1 1 1 1 1 1 0 -0 -0 -1 -1 -1
9 9 8 8 7 7 6 6 5 5 4 4 4 3 3 2 2 2 2 2 2 2 2 2 3 3 3 4 4 4 4 4 4 4 4 4 4 4 4 4 4 4 4 4 3 3 3 3 3 3 2 2 2 2 1 1 1 1 1 1 1 0 0 -0 -1 -1 -1 -2 -2
8 8 8 7 7 6 6 5 5 4 4 4 3 3 2 2 2 2 2 2 2 2 2 2 2 3 3 3 3 3 3 4 4 4 4 4 4 4 3 3 4 3 3 3 3 3 3 3 3 2 2 2 2 1 1 1 1 0 0 0 0 -0 -0 -1 -1 -1 -2 -2 -2
8 8 8 7 7 6 5 5 4 4 3 3 2 2 2 2 2 3 2 2 2 2 2 2 2 3 3 3 3 3 3 3 3 3 3 3 3 3 3 3 3 3 3 3 3 3 3 2 2 2 2 1 1 1 0 0 -0 -0 -0 -0 -1 -1 -1 -1 -2 -2 -2 -3 -3
Height
1485 1487 1488 1489 1489 1490 1491 1491 1492 1493 1494 1495 1496 1497 1498 1499 1500 1501 1503 1504 1505 1507 1508 1509 1510 1512 1513 1513 1514 1515 1516 1518 1518 1519 1520 1521 1522 1523 1523 1524 1524 1525 1525 1526 1526 1526 1527 1527 1527 1528 1528 1528 1527 1527 1527 1527 1527 1527 1526 1526 1526 1526 1525 1525 1525 1524 1524 1523 1523
1484 1486 1487 1488 1488 1488 1489 1490 1491 1491 1493 1494 1495 1496 1497 1498 1499 1500 1501 1503 1504 1505 1507 1508 1509 1510 1511 1512 1513 1514 1515 1516 1517 1518 1518 1519 1520 1521 1522 1522 1523 1523 1524 1524 1524 1525 1525 1525 1526 1526 1526 1526 1526 1526 1525 1525 1525 1525 1525 1525 1525 1524 1524 1524 1524 1523 1523 1523 1522
1483 1484 1485 1486 1487 1487 1488 1488 1489 1490 1491 1492 1493 1495 1496 1497 1498 1498 1500 1501 1503 1504 1505 1507 1508 1509 1510 1511 1512 1513 1513 1514 1515 1516 1517 1518 1518 1519 1520 1520 1521 1522 1522 1523 1523 1523 1523 1524 1524 1524 1524 1524 1524 1524 1524 1524 1524 1524 1524 1523 1523 1523 1523 1523 1523 1522 1522 1521 1521
1482 1483 1484 1484 1485 1485 1486 1487 1488 1488 1490 1491 1492 1493 1494 1495 1496 1497 1498 1500 1501 1503 1503 1505 1506 1507 1508 1509 1510 1511 1512 1513 1514 1514 1515 1516 1517 1517 1518 1519 1519 1520 1520 1521 1521 1521 1522 1522 1522 1523 1523 1523 1523 1523 1523 1523 1523 1523 1522 1522 1522 1522 1522 1521 1521 1521 1520 1520 1519
1481 1482 1482 1483 1483 1484 1485 1486 1487 1488 1489 1490 1491 1492 1493 1494 1495 1496 1497 1498 1499 1501 1502 1503 1504 1506 1507 1508 1508 1509 1510 1511 1512 1513 1513 1514 1515 1516 1517 1517 1518 1518 1518 1519 1519 1520 1520 1520 1521 1521 1521 1521 1521 1521 1521 1521 1521 1521 1521 1521 1520 1520 1520 1520 1520 1519 1519 1519 1518
1480 1480 1481 1481 1482 1483 1484 1485 1486 1487 1488 1489 1490 1491 1492 1493 1493 1494 1495 1497 1498 1499 1500 1502 1503 1504 1505 1506 1507 1508 1508 1509 1510 1511 1512 1513 1513 1514 1515 1515 1516 1517 1517 1517 1518 1518 1518 1518 1519 1519 1519 1519 1519 1519 1519 1519 1519 1519 1519 1519 1519 1519 1519 1518 1518 1518 1518 1517 1517
1479 1479 1479 1480 1481 1482 1483 1483 1485 1486 1487 1488 1489 1489 1490 1491 1492 1493 1494 1495 1497 1498 1499 1500 1501 1502 1503 1504 1505 1506 1507 1508 1508 1509 1510 1511 1512 1512 1513 1514 1514 1515 1515 1516 1516 1516 1516 1517 1517 1517 1518 1518 1518 1518 1518 1518 1518 1518 1518 1517 1517 1517 1517 1517 1517 1517 1516 1516 1516
1478 1478 1478 1479 1480 1481 1481 1483 1483 1484 1485 1487 1488 1488 1489 1490 1491 1492 1493 1494 1495 1496 1497 1498 1499 1500 1501 1502 1503 1504 1505 1506 1506 1507 1508 1509 1509 1510 1511 1512 1513 1513 1513 1514 1514 1514 1514 1515 1515 1516 1516 1516 1516 1516 1516 1516 1516 1516 1516 1516 1516 1516 1516 1516 1516 1515 1515 1514 1514
1477 1477 1477 1478 1478 1479 1480 1481 1482 1483 1484 1486 1487 1488 1488 1489 1490 1491 1492 1493 1493 1494 1495 1496 1497 1498 1499 1500 1501 1502 1503 1503 1504 1505 1506 1507 1508 1508 1509 1510 1511 1511 1512 1512 1512 1512 1513 1513 1513 1514 1514 1514 1514 1514 1514 1514 1514 1514 1514 1514 1514 1514 1514 1514 1514 1514 1513 1513 1513
1475 1475 1475 1476 1477 1478 1479 1480 1482 1483 1484 1485 1486 1487 1488 1488 1489 1490 1490 1491 1492 1493 1494 1494 1495 1496 1498 1498 1499 1500 1501 1502 1502 1503 1504 1505 1506 1507 1507 1508 1508 1509 1509 1510 1510 1511 1511 1511 1512 1512 1512 1513 1513 1513 1513 1513 1513 1513 1513 1513 1513 1513 1512 1512 1512 1512 1512 1512 1511
1473 1474 1474 1475 1476 1477 1478 1480 1481 1482 1483 1484 1485 1486 1486 1487 1488 1488 1489 1490 1490 1491 1492 1493 1493 1494 1495 1496 1497 1498 1499 1500 1500 1501 1502 1503 1503 1504 1505 1506 1506 1507 1507 1508 1508 1509 1509 1509 1510 1510 1511 1511 1511 1511 1511 1511 1511 1511 1511 1511 1511 1511 1511 1511 1510 1510 1510 1510 1510
1472 1473 1473 1474 1475 1477 1478 1479 1480 1481 1482 1483 1483 1484 1485 1485 1486 1487 1487 1488 1488 1489 1490 1491 1492 1493 1493 1494 1495 1496 1497 1498 1498 1499 1499 1500 1501 1502 1503 1503 1504 1505 1505 1506 1507 1507 1508 1508 1508 1508 1509 1509 1509 1509 1509 1510 1510 1510 1510 1510 1510 1510 1509 1509 1509 1508 1508 1508 1508
1472 1472 1473 1474 1475 1476 1477 1478 1479 1479 1480 1481 1482 1483 1483 1483 1484 1485 1485 1486 1487 1487 1488 1489 1490 1491 1492 1493 1493 1494 1495 1495 1496 1497 1497 1498 1498 1499 1500 1501 1502 1503 1504 1504 1505 1505 1506 1506 1507 1507 1507 1507 1508 1508 1508 1508 1508 1508 1508 1508 1508 1508 1508 1508 1507 1507 1507 1507 1507
1471 1472 1473 1473 1474 1475 1476 1477 1477 1478 1479 1479 1480 1481 1481 1482 1483 1483 1483 1484 1485 1486 1486 1487 1488 1489 1489 1490 1491 1492 1493 1493 1494 1494 1495 1495 1496 1498 1498 1500 1500 1501 1502 1503 1503 1504 1504 1505 1505 1505 1505 1506 1506 1506 1506 1506 1506 1507 1507 1507 1507 1507 1506 1506 1506 1506 1506 1505 1505
1470 1471 1471 1472 1473 1474 1474 1475 1476 1477 1477 1478 1479 1479 1480 1480 1481 1482 1482 1483 1483 1484 1484 1485 1486 1487 1488 1488 1489 1490 1491 1491 1492 1493 1493 1494 1495 1496 1497 1498 1499 1500 1501 1501 1502 1502 1503 1503 1503 1503 1504 1504 1504 1504 1504 1505 1505 1505 1505 1505 1505 1505 1505 1504 1504 1504 1504 1504 1504
1469 1469 1470 1471 1472 1473 1473 1474 1474 1475 1476 1477 1477 1478 1478 1479 1479 1480 1480 1481 1482 1482 1483 1483 1484 1485 1486 1487 1488 1488 1489 1490 1490 1491 1492 1493 1494 1495 1496 1497 1498 1498 1499 1500 1500 1501 1501 1501 1502 1502 1502 1502 1502 1503 1503 1503 1503 1503 1503 1503 1503 1503 1503 1503 1503 1503 1503 1503 1502
1467 1468 1469 1469 1470 1471 1472 1473 1473 1474 1474 1475 1476 1476 1477 1477 1478 1478 1479 1479 1480 1480 1481 1482 1483 1484 1485 1486 1487 1487 1488 1488 1489 1490 1491 1492 1493 1493 1495 1496 1496 1497 1498 1498 1499 1499 1499 1500 1500 1500 1500 1501 1501 1501 1501 1501 1501 1502 1502 1502 1502 1501 1501 1501 1501 1501 1501 1501 1500
1466 1467 1467 1468 1469 1470 1471 1472 1472 1473 1473 1474 1474 1475 1475 1476 1476 1477 1477 1478 1478 1479 1481 1482 1483 1483 1484 1485 1485 1486 1486 1487 1488 1488 1489 1490 1491 1492 1493 1494 1495 1496 1496 1497 1497 1498 1498 1498 1498 1498 1499 1499 1499 1499 1499 1500 1500 1500 1500 1500 1500 1499 1499 1499 1499 1499 1499 1499 1499
1465 1465 1466 1467 1468 1469 1470 1471 1472 1472 1473 1473 1474 1474 1474 1475 1475 1476 1476 1477 1478 1479 1480 1481 1482 1482 1483 1483 1483 1484 1484 1485 1486 1487 1488 1489 1490 1491 1492 1493 1493 1494 1494 1495 1496 1496 1497 1497 1497 1497 1497 1498 1498 1498 1498 1498 1498 1498 1498 1498 1498 1498 1498 1498 1498 1498 1498 1497 1497
1464 1465 1466 1467 1468 1469 1470 1470 1471 1472 1472 1472 1473 1473 1473 1473 1474 1474 1475 1476 1477 1478 1479 1479 1480 1480 1481 1481 1482 1483 1483 1484 1485 1486 1487 1488 1488 1489 1491 1492 1492 1493 1493 1493 1494 1494 1495 1495 1495 1496 1496 1496 1496 1496 1496 1496 1496 1496 1496 1496 1496 1496 1496 1496 1496 1496 1495 1495 1495
1464 1464 1465 1466 1467 1468 1468 1469 1470 1470 1470 1471 1471 1471 1472 1472 1472 1473 1473 1474 1476 1476 1477 1478 1478 1479 1479 1480 1480 1481 1482 1483 1483 1484 1485 1486 1487 1488 1489 1490 1491 1491 1492 1492 1493 1493 1493 1494 1494 1494 1494 1494 1495 1495 1495 1495 1495 1494 1494 1494 1494 1494 1494 1494 1494 1494 1493 1493 1493
1463 1463 1464 1465 1465 1466 1467 1468 1468 1468 1468 1469 1469 1469 1470 1470 1471 1472 1473 1473 1474 1475 1475 1476 1477 1477 1478 1478 1479 1480 1480 1481 1482 1483 1484 1485 1486 1487 1488 1489 1489 1490 1490 1490 1491 1491 1492 1492 1493 1493 1493 1493 1493 1493 1493 1493 1493 1493 1493 1492 1492 1492 1492 1492 1492 1492 1492 1491 1491
1462 1462 1463 1463 1464 1465 1465 1466 1466 1466 1467 1467 1467 1468 1468 1469 1469 1470 1471 1471 1472 1473 1473 1474 1475 1476 1476 1477 1478 1478 1479 1480 1481 1482 1482 1483 1484 1485 1486 1487 1488 1488 1488 1489 1489 1490 1490 1491 1491 1491 1491 1491 1491 1491 1491 1491 1491 1491 1490 1490 1490 1490 1490 1490 1490 1489 1489 1489 1488
1461 1461 1462 1462 1463 1463 1464 1464 1464 1465 1465 1465 1465 1466 1467 1467 1468 1468 1469 1470 1470 1471 1472 1473 1473 1474 1475 1476 1476 1477 1478 1478 1479 1480 1481 1482 1483 1484 1485 1486 1486 1487 1487 1488 1488 1489 1489 1489 1489 1489 1489 1489 1489 1489 1489 1489 1488 1488 1488 1488 1488 1488 1488 1488 1488 1487 1487 1486 1486
1459 1460 1460 1461 1461 1462 1462 1463 1463 1463 1463 1463 1464 1464 1465 1466 1466 1467 1468 1468 1469 1470 1471 1471 1472 1473 1473 1474 1475 1476 1476 1477 1478 1478 1479 1480 1481 1482 1483 1484 1485 1486 1486 1487 1487 1488 1488 1488 1488 1488 1488 1488 1488 1487 1487 1487 1486 1486 1486 1486 1486 1486 1485 1485 1485 1485 1484 1484 1483
1458 1458 1459 1459 1460 1460 1460 1461 1461 1461 1462 1462 1462 1463 1463 1464 1465 1465 1466 1467 1468 1468 1469 1470 1470 1471 1472 1473 1473 1474 1475 1476 1477 1477 1478 1479 1480 1481 1482 1483 1484 1485 1485 1486 1486 1486 1486 1486 1486 1486 1486 1486 1485 1485 1485 1484 1484 1484 1484 1484 1484 1483 1483 1483 1483 1483 1482 1482 1481
1457 1457 1457 1458 1458 1458 1459 1459 1460 1460 1460 1460 1461 1461 1462 1463 1463 1464 1465 1465 1466 1467 1468 1468 1469 1469 1470 1471 1472 1473 1473 1474 1475 1476 1477 1478 1479 1480 1481 1482 1483 1483 1484 1484 1484 1485 1485 1485 1485 1484 1484 1484 1483 1483 1483 1483 1483 1482 1482 1482 1482 1481 1481 1480 1480 1480 1479 1479 1478
1456 1456 1456 1457 1457 1457 1458 1458 1458 1458 1458 1459 1459 1460 1461 1461 1462 1463 1463 1464 1465 1465 1466 1467 1467 1468 1469 1470 1471 1472 1472 1473 1474 1475 1476 1477 1478 1479 1480 1481 1482 1483 1483 1483 1483 1483 1483 1483 1483 1483 1482 1482 1482 1481 1481 1481 1480 1480 1480 1479 1479 1479 1478 1478 1478 1477 1476 1476 1475
1455 1455 1455 1456 1456 1456 1457 1457 1457 1457 1457 1458 1458 1459 1459 1460 1460 1461 1462 1463 1463 1464 1464 1465 1466 1467 1468 1468 1469 1470 1471 1472 1473 1474 1475 1476 1477 1478 1479 1480 1481 1481 1482 1482 1482 1482 1482 1482 1481 1481 1481 1480 1479 1479 1478 1478 1478 1478 1477 1477 1476 1476 1475 1475 1474 1473 1473 1472 1471
1454 1454 1454 1455 1455 1455 1455 1456 1456 1456 1456 1457 1457 1458 1458 1458 1459 1459 1460 1461 1462 1462 1463 1463 1464 1465 1466 1467 1468 1469 1470 1471 1472 1473 1474 1475 1476 1477 1478 1478 1479 1480 1480 1480 1480 1480 1480 1480 1480 1479 1479 1478 1478 1477 1476 1476 1476 1475 1475 1474 1473 1473 1472 1472 1471 1470 1469 1468 1467
1453 1453 1454 1454 1454 1454 1455 1455 1455 1455 1455 1455 1456 1456 1457 1457 1458 1458 1459 1459 1460 1461 1462 1462 1463 1464 1465 1466 1467 1468 1469 1470 1471 1472 1473 1474 1475 1476 1476 1477 1478 1478 1479 1479 1479 1479 1479 1479 1478 1478 1478 1477 1476 1475 1474 1474 1473 1473 1472 1472 1471 1470 1469 1468 1468 1466 1465 1465 1464
1453 1453 1453 1453 1453 1453 1454 1454 1454 1454 1454 1454 1455 1455 1455 1456 1456 1457 1458 1458 1459 1460 1460 1461 1462 1463 1464 1465 1466 1467 1468 1469 1470 1471 1472 1473 1473 1474 1475 1476 1477 1477 1477 1478 1478 1478 1478 1477 1477 1477 1476 1476 1475 1474 1473 1472 1472 1471 1470 1469 1468 1468 1467 1466 1465 1464 1463 1462 1462
1452 1452 1452 1453 1453 1453 1453 1453 1453 1453 1453 1453 1453 1454 1454 1455 1456 1456 1457 1457 1458 1458 1459 1460 1461 1462 1463 1464 1465 1466 1467 1468 1469 1470 1471 1472 1473 1473 1474 1474 1475 1476 1476 1476 1476 1476 1476 1476 1475 1475 1475 1475 1474 1473 1472 1471 1469 1468 1467 1466 1466 1465 1464 1463 1463 1462 1461 1460 1459
1452 1452 1452 1452 1452 1452 1452 1452 1452 1452 1453 1453 1453 1453 1453 1454 1455 1455 1456 1456 1457 1457 1458 1459 1460 1461 1462 1463 1464 1465 1466 1468 1468 1469 1470 1471 1472 1472 1473 1473 1474 1474 1475 1475 1475 1475 1474 1474 1474 1474 1473 1473 1472 1471 1470 1469 1468 1467 1465 1464 1463 1463 1462 1461 1460 1459 1458 1458 1457
1451 1451 1451 1451 1451 1451 1451 1451 1451 1452 1452 1452 1453 1453 1453 1453 1454 1454 1455 1456 1456 1457 1457 1458 1459 1460 1461 1462 1463 1464 1466 1467 1468 1468 1469 1470 1470 1471 1471 1472 1473 1473 1473 1473 1473 1473 1473 1473 1473 1472 1472 1471 1470 1469 1468 1467 1466 1465 1463 1462 1461 1460 1460 1459 1458 1457 1456 1456 1455
1450 1450 1450 1450 1451 1451 1451 1451 1451 1451 1452 1452 1452 1452 1453 1453 1453 1454 1455 1455 1456 1456 1457 1458 1458 1459 1460 1461 1463 1463 1465 1466 1467 1468 1468 1469 1469 1470 1470 1471 1471 1471 1472 1472 1472 1472 1471 1471 1471 1470 1470 1469 1468 1467 1466 1465 1463 1462 1461 1460 1459 1458 1458 1457 1456 1455 1454 1453 1453
1450 1450 1450 1450 1450 1450 1450 1450 1451 1451 1451 1451 1452 1452 1452 1453 1453 1454 1454 1455 1455 1456 1456 1457 1458 1459 1460 1461 1462 1463 1464 1465 1466 1467 1468 1468 1468 1469 1469 1469 1470 1470 1470 1470 1470 1470 1469 1469 1469 1468 1468 1467 1466 1464 1463 1462 1461 1459 1458 1457 1456 1455 1455 1454 1453 1452 1451 1451 1450
1450 1450 1450 1450 1450 1450 1450 1450 1450 1451 1451 1451 1451 1452 1452 1452 1453 1453 1454 1454 1455 1455 1456 1457 1458 1458 1459 1461 1462 1463 1464 1465 1465 1466 1467 1467 1467 1468 1468 1468 1468 1468 1468 1468 1468 1468 1468 1467 1467 1466 1465 1464 1463 1462 1461 1459 1458 1457 1456 1454 1453 1453 1452 1451 1450 1449 1448 1448 1447
1449 1449 1449 1449 1449 1450 1450 1450 1450 1450 1451 1451 1451 1451 1452 1452 1453 1453 1454 1454 1455 1455 1456 1457 1458 1458 1459 1460 1462 1463 1463 1464 1465 1465 1466 1466 1466 1466 1466 1466 1467 1467 1467 1467 1466 1466 1466 1465 1464 1464 1463 1462 1461 1459 1458 1457 1455 1454 1453 1452 1451 1450 1449 1448 1448 1447 1446 1445 1445
1449 1449 1449 1449 1449 1449 1449 1450 1450 1450 1450 1451 1451 1451 1452 1452 1453 1453 1454 1454 1455 1455 1456 1457 1458 1458 1459 1460 1461 1462 1463 1463 1464 1464 1465 1465 1465 1465 1465 1465 1465 1465 1465 1465 1464 1464 1463 1463 1462 1461 1460 1459 1458 1457 1456 1454 1453 1452 1450 1449 1448 1448 1446 1446 1445 1444 1443 1443 1442
1449 1449 1449 1449 1449 1449 1449 1449 1450 1450 1450 1451 1451 1451 1452 1452 1453 1453 1454 1454 1455 1456 1456 1457 1458 1459 1460 1461 1461 1462 1463 1463 1463 1463 1464 1464 1464 1464 1464 1463 1463 1463 1463 1463 1462 1462 1461 1460 1459 1458 1458 1457 1455 1454 1453 1452 1450 1449 1448 1447 1446 1445 1444 1443 1442 1441 1441 1440 1439
Wind_Speed
37 36 35 35 35 35 35 36 36 36 36 35 35 35 35 35 34 34 33 32 32 31 31 31 30 30 30 30 31 31 32 32 32 32 31 30 29 27 26 25 24 22 21 20 19 18 17 17 16 16 16 16 16 16 15 15 15 15 15 15 15 15 15 15 16 16 17 18 19
36 35 34 34 35 35 35 35 35 36 35 35 35 35 34 34 34 33 33 32 31 31 31 30 30 30 30 30 30 31 31 32 32 32 31 30 29 28 27 26 24 23 21 20 19 18 18 17 17 17 16 16 16 16 16 15 15 15 15 15 15 15 15 15 15 16 17 18 18
34 34 34 34 34 35 35 35 36 36 35 35 34 34 34 33 33 33 32 31 31 30 30 30 30 30 29 29 30 30 31 32 32 32 31 31 30 29 28 26 25 23 22 21 20 19 18 18 17 17 17 17 16 16 16 16 15 15 15 14 15 15 15 15 15 16 16 17 18
33 33 33 34 35 35 36 36 36 35 35 34 34 33 33 33 32 32 31 31 30 30 30 30 30 30 29 29 29 30 30 31 31 31 31 31 30 29 28 26 25 23 22 21 20 19 19 18 18 18 17 17 17 16 16 16 16 15 15 15 15 14 14 15 15 15 16 17 17
32 32 33 34 35 35 35 35 35 35 35 34 34 33 33 32 32 31 31 30 30 30 30 30 30 29 29 29 29 29 30 30 31 31 31 31 30 29 28 27 25 24 23 22 21 20 19 19 19 18 18 17 17 17 16 16 16 15 15 15 14 14 14 14 15 15 16 16 17
31 32 33 34 34 35 35 35 35 35 34 34 33 33 32 32 31 31 31 30 30 30 30 30 30 29 29 28 28 28 29 29 30 31 31 31 30 29 28 27 25 24 23 22 21 21 20 20 19 19 18 18 17 17 17 16 16 15 15 15 14 14 14 14 14 15 15 16 17
31 32 33 34 34 35 35 35 35 35 34 34 33 32 32 31 31 30 30 30 30 30 30 30 30 29 29 28 28 28 28 29 29 30 31 31 30 30 29 27 26 25 24 23 22 22 21 20 20 19 19 18 18 17 17 16 16 15 15 14 14 14 13 14 14 15 15 16 17
31 32 33 34 34 35 35 35 35 35 34 34 33 32 31 30 30 29 30 30 30 30 30 30 30 30 29 28 28 28 28 28 29 30 30 31 31 30 29 28 27 26 25 24 23 22 22 21 20 19 19 18 18 17 17 16 16 15 14 14 14 14 13 13 14 14 15 16 17
32 33 34 34 35 35 35 35 35 34 34 33 32 31 30 30 29 29 29 30 30 31 31 31 30 30 29 28 28 28 28 28 29 30 30 31 31 30 29 28 28 27 26 25 24 23 22 21 20 20 19 19 18 17 17 16 15 14 14 13 13 13 13 14 14 14 15 16 17
33 34 35 35 35 35 35 34 34 33 33 32 31 30 30 29 29 29 30 30 30 31 31 31 31 30 29 29 28 28 28 28 29 29 30 31 31 31 30 30 29 28 27 26 24 23 22 21 20 20 19 19 18 17 17 16 15 14 14 13 13 13 13 14 14 15 16 17 18
35 36 36 36 36 35 35 34 33 33 32 31 30 30 29 29 29 30 30 30 31 31 31 31 31 31 30 29 29 29 28 28 29 29 30 31 31 32 31 31 30 28 27 26 25 23 22 21 20 20 19 19 18 17 17 16 15 14 13 13 13 12 13 13 14 15 16 18 19
35 36 36 36 35 35 34 33 32 31 30 30 29 29 29 30 30 30 30 31 31 32 32 32 31 31 30 30 29 29 29 29 29 30 31 31 32 32 32 31 29 28 27 26 24 23 22 21 21 20 20 19 18 17 17 16 15 14 13 13 12 12 13 13 15 16 17 19 20
34 34 34 34 34 33 32 31 31 30 29 29 29 29 29 30 30 30 31 31 32 32 32 32 32 31 31 30 30 30 29 30 30 31 31 32 32 32 31 30 29 28 26 25 24 23 22 21 21 20 20 19 18 17 16 15 15 14 13 13 12 12 13 14 15 16 18 20 21
32 32 32 32 31 31 30 29 29 29 29 28 29 29 29 30 30 31 31 32 32 32 32 32 32 32 32 31 31 30 30 30 30 31 31 32 32 31 30 29 28 27 26 25 24 23 22 21 21 20 20 19 18 17 16 15 14 14 13 13 12 13 13 14 16 17 19 20 21
29 29 30 29 29 29 28 28 28 28 28 28 29 29 30 30 31 31 32 32 33 33 33 33 33 33 32 32 31 31 30 30 30 30 30 30 30 30 29 28 27 26 26 25 24 23 22 21 21 20 20 19 18 17 16 15 14 14 13 13 12 13 14 15 17 18 20 21 22
27 28 28 28 28 27 27 27 28 28 28 28 29 29 30 31 31 32 32 33 33 34 34 34 34 33 32 31 31 30 29 29 29 29 29 29 29 29 29 28 27 26 25 25 24 23 22 21 21 20 19 19 18 17 16 15 14 14 13 12 13 14 15 16 18 19 21 22 23
25 26 27 27 27 27 27 27 28 28 28 29 29 30 31 31 32 33 33 34 34 34 34 34 33 32 31 30 29 29 28 28 28 28 29 29 29 29 28 27 26 26 25 24 24 23 22 21 21 20 19 18 17 17 16 15 14 14 13 13 14 15 16 18 19 20 22 23 23
24 26 26 27 27 27 27 27 28 28 28 29 30 30 31 32 32 33 33 34 34 34 34 33 32 31 30 29 29 28 28 28 28 28 29 29 29 28 27 27 26 26 25 24 23 23 22 21 20 20 19 18 17 16 16 15 14 14 14 14 15 16 17 19 20 22 23 24 24
23 24 25 26 26 26 26 26 27 27 27 28 29 30 30 31 32 33 33 34 34 33 32 31 31 30 30 29 28 28 28 27 28 28 28 28 28 27 27 26 26 25 25 24 23 22 22 21 20 19 19 18 17 16 15 15 14 14 15 15 16 17 18 20 22 23 24 25 25
21 22 22 23 23 23 24 24 24 25 26 26 27 28 30 31 31 32 33 33 32 32 31 31 30 30 29 28 27 27 27 27 27 27 28 28 28 27 26 26 25 25 24 24 23 22 22 21 20 19 18 17 17 16 15 15 14 15 15 16 17 18 19 21 23 24 25 25 26
18 19 19 20 20 20 21 22 22 23 24 25 26 27 28 29 30 31 31 31 31 31 30 30 30 29 28 27 26 26 26 26 26 27 27 27 27 27 26 26 25 25 24 24 23 22 21 21 20 19 18 17 17 16 15 15 15 15 16 17 18 19 22 23 25 25 26 26 27
17 17 18 18 19 19 19 20 21 22 23 24 25 26 27 28 29 29 30 30 30 30 30 30 29 28 27 26 25 25 25 26 26 27 27 27 27 27 26 25 25 25 24 24 23 22 21 20 20 19 18 17 16 16 15 15 16 16 17 18 20 22 24 26 26 26 26 27 27
17 17 18 18 18 18 19 19 20 21 22 23 24 24 25 26 27 28 29 29 30 30 29 29 28 26 25 24 24 24 25 26 27 27 27 27 27 27 26 25 25 25 24 24 23 22 21 20 19 19 18 17 16 16 16 16 17 18 19 21 23 25 27 27 27 27 27 28 28
16 17 17 18 18 18 18 19 20 20 21 22 23 24 24 25 26 27 28 29 29 29 28 28 27 26 25 24 24 25 25 26 27 27 27 27 27 27 26 26 25 25 24 23 22 21 21 20 19 19 18 17 16 16 17 17 18 20 22 24 26 28 29 29 28 28 28 29 30
16 17 17 18 18 18 18 19 20 20 21 22 22 23 24 24 25 26 27 28 28 28 28 27 26 25 25 24 24 25 26 27 27 27 27 27 27 26 26 26 25 24 24 23 22 21 20 20 19 19 18 17 16 17 18 19 21 22 24 26 28 29 30 30 29 29 29 30 31
16 17 17 18 18 18 18 19 19 20 21 21 22 22 23 24 25 26 26 27 28 28 27 27 26 25 25 25 25 26 26 27 27 27 27 27 27 26 26 25 25 24 23 22 22 21 20 20 19 18 17 17 17 18 19 21 23 25 27 28 30 31 31 31 30 30 31 31 32
16 16 17 17 17 18 18 18 19 19 20 21 21 22 22 23 24 25 26 27 27 27 27 27 26 26 25 25 25 26 27 27 27 27 27 27 26 26 25 25 24 24 23 22 21 21 20 20 19 18 18 18 19 20 21 23 25 27 29 30 31 32 32 32 31 32 32 33 33
15 15 16 16 16 16 17 17 18 19 19 20 20 21 21 22 23 24 25 26 27 27 27 27 27 26 25 25 26 26 27 27 27 27 27 26 26 26 25 25 24 23 22 22 21 21 20 20 19 18 19 19 21 22 23 25 27 29 31 32 33 33 33 32 32 33 34 34 35
13 14 14 14 14 14 15 16 16 17 18 19 19 20 20 21 22 23 25 25 26 27 27 27 27 26 26 26 26 26 27 27 27 27 26 26 25 25 25 25 24 23 22 22 21 21 20 19 19 19 20 21 22 24 25 27 29 31 33 34 34 34 33 33 34 35 35 36 36
12 13 13 13 13 13 13 14 15 16 17 17 18 18 19 20 21 22 23 24 25 26 26 27 26 26 26 26 26 26 26 26 26 26 26 25 25 25 25 25 24 23 22 22 21 21 20 19 19 19 20 22 23 25 27 29 31 33 34 35 35 34 34 35 35 36 37 38 38
12 12 12 12 12 12 12 13 14 14 15 16 17 17 18 19 20 21 22 23 24 24 25 26 26 26 25 25 25 26 26 26 25 25 25 25 25 25 25 25 24 23 23 22 21 21 20 19 19 20 21 22 23 25 28 30 33 34 35 35 34 34 35 36 36 37 38 38 38
12 12 12 12 11 11 12 12 13 13 14 14 15 16 16 17 18 19 19 20 22 23 24 25 25 25 25 25 25 25 25 25 24 24 24 24 25 25 25 24 24 23 23 22 21 21 20 20 20 21 21 23 24 26 28 30 33 34 35 35 35 35 35 36 37 38 38 38 38
12 12 12 12 11 11 11 12 12 12 12 13 13 14 14 15 15 16 17 18 20 22 23 24 24 24 25 25 25 24 24 24 23 23 23 24 24 25 25 24 24 23 23 22 21 21 20 20 21 22 23 24 25 26 28 30 32 33 34 35 35 36 36 37 37 38 38 38 38
12 12 12 12 11 11 11 11 11 11 11 11 12 12 13 13 13 14 15 17 18 20 21 22 23 23 24 24 24 24 23 23 22 23 23 24 24 24 24 24 24 23 23 22 21 21 21 22 23 24 24 25 25 26 28 30 32 33 34 35 36 36 37 37 38 38 38 38 37
12 12 12 12 11 10 10 10 10 10 10 10 10 11 12 12 12 12 13 15 16 18 19 20 21 22 23 23 23 23 22 22 22 22 23 23 24 24 24 24 24 23 22 22 21 21 21 22 23 24 24 25 26 28 30 32 33 34 35 36 36 37 37 37 37 37 37 36 36
12 12 12 12 11 10 10 9 9 9 9 8 9 10 10 11 11 11 11 13 15 16 18 19 20 21 22 22 22 21 21 21 21 22 22 23 23 23 24 24 24 23 22 21 21 22 22 23 24 24 25 27 29 30 32 33 34 35 35 36 36 37 37 37 36 36 36 35 34
11 12 12 11 11 10 9 9 8 8 7 7 8 8 9 10 10 10 10 12 14 15 17 17 18 19 20 20 20 20 20 20 20 21 21 22 22 23 23 23 23 23 22 22 22 23 23 24 25 26 27 29 30 32 33 34 34 35 35 36 36 36 36 36 36 35 35 34 33
11 11 11 11 10 10 9 8 7 6 6 6 7 7 8 8 9 9 10 11 12 14 15 16 17 17 18 18 19 19 19 19 19 19 20 21 22 22 23 23 23 23 22 23 23 24 25 26 26 27 29 30 31 33 33 34 34 35 35 35 36 36 35 35 34 34 34 33 32
10 10 10 10 9 9 8 7 6 5 5 5 6 6 7 7 8 8 9 10 11 12 13 14 15 15 16 16 17 17 17 17 17 18 19 20 21 22 22 22 23 23 23 24 25 25 26 27 28 29 30 31 32 33 33 33 34 34 35 35 35 35 34 34 33 33 33 32 32
9 9 9 8 8 7 6 5 4 4 4 4 5 5 6 6 7 7 7 8 9 10 11 13 13 14 14 15 15 15 15 16 17 18 19 19 20 21 21 22 23 24 25 26 26 27 28 29 30 31 32 32 32 32 32 32 33 33 34 34 34 34 34 33 33 32 32 32 31
8 8 7 7 6 6 5 4 3 2 3 3 3 4 4 5 5 5 5 6 7 9 9 11 12 12 13 13 13 14 15 15 16 17 18 19 20 21 22 23 25 26 27 27 28 29 30 31 32 32 32 32 32 31 31 31 32 32 33 33 33 33 33 33 32 32 32 31 31
Wind_Direction
221 222 223 224 226 228 230 231 233 234 235 235 235 236 238 238 238 238 237 236 234 234 234 234 234 234 233 231 229 227 226 225 225 226 228 230 231 233 234 236 239 241 244 247 251 254 257 260 264 268 271 275 278 282 286 289 292 295 298 301 304 308 311 313 316 317 319 320 320
222 223 224 225 227 229 231 231 233 234 235 235 236 238 239 240 240 240 239 238 237 236 236 236 235 235 234 233 231 229 227 226 226 227 228 230 231 232 234 236 238 241 244 247 250 253 256 259 263 266 270 273 277 280 283 286 289 293 295 299 302 305 308 311 314 316 318 319 320
222 223 224 225 227 228 229 230 232 233 234 235 236 237 239 240 241 241 241 240 239 238 237 237 236 236 235 234 232 231 229 228 227 228 229 230 231 232 234 236 238 241 243 246 249 252 255 258 262 265 269 272 275 277 280 284 287 290 293 296 299 303 307 310 313 316 318 319 320
222 222 223 225 226 228 229 231 232 234 234 235 235 236 238 239 240 241 241 241 240 239 238 237 237 236 236 235 234 232 231 230 229 229 230 231 232 233 234 235 238 240 243 245 248 251 254 257 260 264 267 270 273 275 278 281 285 288 291 294 298 302 306 309 313 316 318 320 320
220 222 223 225 227 228 230 232 233 234 235 235 235 236 237 238 239 240 240 240 239 239 238 238 237 237 236 236 235 234 233 232 231 231 231 232 232 233 234 235 237 240 242 245 247 250 253 256 259 263 266 269 272 274 276 279 283 286 290 293 297 301 305 309 312 315 318 320 321
218 220 223 225 227 228 230 232 233 234 235 236 236 237 238 238 239 239 239 239 239 238 238 238 237 237 237 236 236 235 234 233 233 232 232 232 233 233 234 235 236 239 241 244 246 249 251 255 258 262 265 268 270 273 275 278 282 285 289 292 296 299 303 308 311 315 318 321 322
217 219 222 224 226 227 229 231 233 234 236 237 237 238 239 239 239 239 239 239 239 239 238 238 237 237 237 236 236 236 235 234 234 233 233 233 233 233 233 234 236 238 241 243 246 248 251 254 257 261 264 267 269 271 274 277 281 284 288 291 294 298 302 306 310 314 318 321 323
216 219 222 224 226 228 230 231 233 234 236 237 238 239 240 241 241 241 240 240 240 239 239 238 238 238 237 237 237 237 236 235 234 234 234 233 233 232 233 234 235 237 240 242 245 247 250 253 256 259 263 265 268 270 273 276 279 283 286 290 293 297 301 305 310 314 318 322 323
215 219 222 225 227 229 231 233 234 236 238 239 240 241 242 242 242 241 241 240 240 240 240 240 239 239 239 239 238 238 237 236 235 235 234 233 233 232 232 233 235 237 239 241 244 246 249 252 255 259 261 264 266 268 271 274 277 280 284 287 292 296 301 305 310 315 319 322 322
216 220 223 226 229 231 233 235 237 239 241 242 243 243 243 243 243 242 241 241 241 241 241 241 240 240 240 240 240 239 238 237 236 235 235 234 233 232 232 233 234 236 238 240 242 245 248 251 254 258 260 263 264 267 269 272 275 278 281 285 290 295 301 306 311 316 319 321 321
219 223 226 229 232 235 237 238 241 243 244 245 245 245 244 244 243 243 242 242 242 241 241 242 241 241 241 241 241 241 240 238 237 236 235 234 233 232 232 232 234 236 238 240 242 244 247 251 254 257 259 261 263 265 267 270 273 275 279 283 288 295 301 307 312 316 319 320 319
224 227 230 234 237 240 242 244 245 247 248 247 247 246 245 244 244 243 242 242 241 241 242 243 243 243 243 243 243 242 241 240 238 237 235 234 232 231 231 231 233 235 237 239 241 244 247 251 254 256 258 260 262 264 266 269 271 274 277 281 287 293 301 308 314 317 318 318 317
229 232 235 238 241 244 246 248 249 250 250 248 247 246 245 244 244 243 242 242 241 242 243 243 244 244 244 244 244 244 243 241 239 237 234 232 230 229 229 230 232 235 237 239 241 244 248 251 254 256 258 260 262 264 266 268 270 272 276 281 286 293 301 308 313 316 316 315 314
234 236 239 241 244 246 248 249 249 250 250 248 247 246 245 244 243 243 242 242 242 242 243 244 244 245 245 245 245 245 244 243 241 237 234 230 228 228 228 230 233 235 237 239 242 245 248 251 253 255 257 259 261 264 265 267 269 272 275 280 286 294 302 308 312 314 313 312 311
237 239 241 243 244 246 247 247 248 248 248 248 247 246 245 244 244 243 243 242 242 243 243 243 244 245 246 246 246 247 246 245 242 238 234 230 228 228 229 231 234 236 238 241 243 246 249 251 253 254 256 259 261 263 265 267 269 271 276 281 288 296 303 308 311 312 311 310 309
238 239 241 242 243 244 245 246 246 247 247 247 246 246 245 245 244 243 243 242 242 243 243 243 244 245 247 248 249 250 249 247 244 239 234 230 229 229 231 233 235 237 240 242 244 247 249 250 252 254 256 258 261 263 265 267 269 272 277 283 291 298 304 307 309 309 309 308 306
238 239 240 241 242 242 243 244 244 245 246 246 246 246 245 245 244 244 244 243 243 243 244 244 246 248 250 252 254 254 252 248 243 238 234 231 230 231 233 235 237 239 241 243 245 247 248 249 251 253 255 257 260 263 265 267 270 274 280 287 294 299 303 306 307 307 307 306 305
239 239 240 240 241 242 243 244 245 246 246 247 247 248 247 247 247 246 246 246 246 246 247 248 250 252 254 256 256 255 252 247 242 237 233 232 232 233 235 236 238 240 242 244 245 246 247 248 250 252 255 257 260 262 264 267 271 276 283 290 295 299 302 304 305 305 305 305 303
241 242 242 243 244 245 246 248 249 250 251 251 252 252 251 251 250 250 250 250 250 250 251 252 253 255 257 257 256 254 251 246 240 236 233 232 233 234 236 237 239 240 242 243 244 245 247 248 250 252 255 258 260 262 264 267 273 280 286 292 296 299 302 303 304 304 304 303 302
245 247 248 249 250 252 253 254 255 256 257 257 256 256 255 254 254 253 253 253 253 254 254 254 255 256 257 257 256 253 248 244 239 235 234 234 234 236 237 238 239 240 241 242 243 244 246 248 250 253 255 258 259 261 264 270 277 283 289 293 297 299 301 302 302 303 302 301 300
250 252 253 254 255 256 257 259 259 260 259 259 258 257 257 257 256 256 256 256 256 256 256 256 257 257 258 257 255 251 246 242 238 235 235 235 236 237 238 238 239 239 240 241 243 244 246 248 251 254 256 257 259 262 266 273 281 286 290 293 296 297 298 299 301 301 301 300 298
254 255 256 256 256 257 258 259 259 259 259 259 259 259 258 258 258 258 258 257 257 257 256 257 258 258 258 257 254 249 244 240 237 236 236 237 237 238 239 238 238 238 239 241 242 244 247 249 252 254 256 257 259 264 270 277 283 287 289 291 293 294 296 299 300 300 300 298 296
257 257 258 258 258 259 259 260 260 260 261 261 260 260 259 259 258 258 257 257 256 256 256 257 258 259 258 255 251 247 242 239 237 237 237 238 238 239 239 238 237 237 238 240 242 245 247 250 253 254 256 258 262 268 275 281 285 287 288 290 292 294 297 299 300 300 299 297 295
259 260 260 261 261 262 262 262 262 262 262 262 261 261 260 259 258 257 257 256 256 256 257 258 258 258 256 253 248 244 240 238 238 238 238 239 239 239 239 238 237 237 238 241 243 246 248 251 253 255 257 260 266 274 280 284 286 287 289 291 294 296 299 300 300 299 297 295 294
260 261 261 262 262 262 262 262 262 262 263 263 263 262 261 260 259 258 257 257 257 257 257 258 258 257 254 250 246 242 240 239 239 239 240 240 240 240 239 238 237 237 239 241 244 247 250 253 254 256 259 265 272 279 283 286 287 289 291 293 296 298 300 300 300 298 296 294 293
261 261 262 262 262 262 262 262 262 263 263 264 264 263 262 261 260 259 258 257 257 257 258 258 257 256 253 248 245 242 240 239 240 240 241 241 241 240 239 238 238 238 240 242 246 249 252 254 256 258 263 270 277 282 286 288 290 292 294 296 298 299 300 300 299 296 294 293 294
261 262 262 263 263 263 263 263 264 264 264 264 264 264 263 262 261 259 258 257 257 257 258 258 257 255 252 248 245 242 241 240 241 241 241 241 241 240 240 239 239 239 241 244 247 250 253 255 257 262 268 274 280 285 288 291 292 294 295 297 299 299 299 299 297 295 293 294 295
262 263 264 264 265 265 265 265 265 265 265 265 265 265 264 263 261 260 258 258 257 257 257 256 256 254 252 248 245 243 242 242 242 242 242 242 241 240 239 239 240 241 243 246 249 252 254 257 261 267 273 279 284 288 291 293 294 296 297 299 300 300 299 297 296 295 295 297 299
264 265 266 267 267 267 267 266 266 265 265 265 264 264 263 262 261 260 259 258 257 256 256 256 255 254 251 248 246 244 243 243 243 243 243 242 241 240 240 240 240 242 245 248 251 253 256 260 265 272 279 285 289 292 293 295 296 297 299 300 301 300 299 297 296 297 299 301 302
269 270 271 270 270 270 269 269 268 267 265 264 263 262 262 261 260 259 259 258 257 257 256 256 255 253 251 249 247 245 244 244 244 245 244 243 242 241 240 241 242 244 246 249 252 255 258 263 270 278 285 289 292 294 295 296 297 299 301 301 301 300 299 298 299 300 302 304 304
276 277 277 277 275 274 273 273 271 269 266 265 264 263 262 261 261 260 259 259 258 258 257 256 254 252 251 249 248 246 246 246 246 246 245 244 243 242 241 242 243 245 248 251 254 257 261 267 274 282 288 291 293 294 295 296 299 300 301 301 300 299 298 299 301 303 304 304 303
281 282 282 281 278 277 277 276 274 271 269 268 267 266 265 264 263 262 261 260 259 257 256 254 253 251 250 249 248 247 247 247 248 248 247 245 243 242 242 243 245 247 251 254 257 260 264 271 278 285 289 290 290 291 293 296 299 301 301 300 299 299 300 301 302 303 303 302 301
283 283 283 282 280 279 279 278 277 275 273 272 271 270 269 267 265 262 261 259 258 256 255 254 253 252 250 249 248 248 248 248 249 248 247 244 242 242 242 244 247 250 254 257 260 263 268 275 281 285 286 286 286 288 292 297 299 300 299 299 299 300 301 302 302 301 301 300 299
282 282 281 281 280 280 280 280 279 278 276 276 275 274 272 270 267 264 261 259 257 257 256 255 254 253 252 251 250 249 249 250 250 248 246 243 242 242 244 247 250 254 257 261 264 268 273 277 281 282 282 282 285 289 294 297 298 297 297 298 299 300 301 301 300 300 299 298 296
280 279 279 279 279 280 280 280 280 280 279 278 278 276 275 273 270 267 263 260 259 258 257 256 254 253 252 251 250 250 250 250 249 248 245 243 242 244 246 250 253 257 261 265 269 273 276 279 280 281 282 284 288 292 295 296 296 296 297 298 299 300 300 300 299 298 297 296 294
280 278 277 276 277 277 277 279 279 280 280 278 278 277 276 274 272 268 264 261 259 257 256 255 253 252 250 250 249 250 250 250 250 247 245 243 244 246 250 253 257 261 265 269 273 276 278 280 281 283 286 290 292 294 295 296 296 297 298 299 299 300 300 299 298 297 296 295 294
282 279 276 275 274 274 275 277 278 278 278 277 275 275 274 274 272 268 263 260 258 257 256 255 253 252 251 251 251 252 252 252 250 247 245 245 247 250 253 257 261 265 270 274 277 279 281 283 285 288 291 293 294 296 297 298 299 299 299 299 299 299 299 299 298 297 296 295 294
284 281 278 275 273 272 273 274 274 274 274 272 270 269 270 271 269 266 262 260 258 257 257 256 256 255 254 254 254 255 254 253 250 247 246 248 251 254 258 263 267 271 275 279 282 284 286 289 291 293 295 296 297 299 300 300 300 300 299 299 299 299 299 299 298 297 296 295 294
287 284 280 275 272 270 270 269 268 269 269 266 263 262 263 265 265 263 263 263 261 260 259 259 259 258 258 258 257 256 254 252 249 248 249 252 256 261 266 271 274 278 281 284 287 289 292 294 296 297 298 299 300 301 301 301 300 299 299 298 299 299 299 298 297 297 296 295 294
291 286 281 274 269 265 263 261 262 262 262 261 258 258 258 258 261 264 267 267 265 263 262 262 262 262 262 261 258 255 252 250 249 250 253 258 263 269 274 278 281 284 286 289 292 294 296 297 299 300 301 302 302 303 302 301 299 299 298 299 299 299 299 298 297 296 296 295 294
293 287 278 268 260 255 252 253 257 255 248 245 245 247 251 258 266 273 274 272 270 269 269 268 267 266 264 260 256 252 250 250 253 256 261 266 271 276 281 285 287 290 291 293 296 298 299 300 301 303 303 304 304 303 302 300 299 298 298 299 299 299 298 298 297 297 296 296 295